Home   Weather   Nijmegen   Past weeks

Flag for Netherlands Past Weather in Nijmegen, Netherlands — Yesterday and Last 2 Weeks

Now
39 °F

Overcast.


Feels Like: 35 °F
Forecast: 34 / 54 °F
Wind: 6 mph from Southwest

Location: Volkel

Current Time: Apr 28, 2017 at 4:38:24 am

Latest Report: Apr 28, 2017 at 3:55 am


Visibility: N/A

Pressure: 29.95 "Hg

Humidity: 81%

Dew Point: 34 °F

Location of NijmegenLocation

Past Weather in Nijmegen — Graph

°F

Nijmegen Temperature Yesterday

Maximum temperature yesterday: 54 °F (at 4:25 pm)
Minimum temperature yesterday: 28 °F (at 5:55 am)
Average temperature yesterday: 43 °F

High & Low Weather Summary for the Past Weeks

 TemperatureHumidityPressure
High59 °F (Apr 21, 12:55 pm)100% (Apr 13, 4:03 am)30.63 "Hg (Apr 13, 4:03 am)
Low25 °F (Apr 20, 6:55 am)33% (Apr 20, 3:25 pm)29.68 "Hg (Apr 25, 4:25 am)
Average45 °F71%30.14 "Hg
* Reported Apr 13 2:25 am — Apr 28 2:55 am, Nijmegen, Weather by CustomWeather, © 2017

Note: Actual official high and low records may vary slightly from our data, if they occured in-between our weather recording intervals... More about our weather records

Advertising

Nijmegen Weather History for the Previous 24 Hours

Scroll right to see more
 ConditionsComfort  
Time TempWeatherWind HumidityBarometerVisibility
2:55 am
Fri, Apr 28
39 °FOvercast.6 mph81%29.95 "HgN/A
2:25 am37 °FOvercast.5 mph75%29.95 "HgN/A
1:55 am36 °FPassing clouds.5 mph81%29.98 "HgN/A
1:25 am37 °FPassing clouds.5 mph75%29.98 "HgN/A
12:55 am37 °FPassing clouds.5 mph75%29.98 "HgN/A
12:25 am37 °FPassing clouds.3 mph75%29.98 "HgN/A
11:55 pm
Thu, Apr 27
36 °FPassing clouds.3 mph75%29.98 "HgN/A
11:25 pm39 °FPassing clouds.5 mph70%29.98 "HgN/A
10:55 pm39 °FPassing clouds.5 mph70%29.98 "HgN/A
10:25 pm43 °FPassing clouds.3 mph61%29.98 "HgN/A
9:55 pm43 °FPassing clouds.5 mph57%30.01 "HgN/A
9:25 pm45 °FPassing clouds.5 mph53%29.98 "HgN/A
8:55 pm46 °FPassing clouds.7 mph50%29.98 "HgN/A
8:25 pm48 °FCool.8 mph46%29.98 "HgN/A
7:55 pm48 °FScattered clouds.9 mph50%29.98 "HgN/A
7:25 pm50 °FBroken clouds.8 mph47%29.98 "HgN/A
6:55 pm48 °FBroken clouds.7 mph62%29.98 "HgN/A
6:25 pm50 °FBroken clouds.5 mph58%29.98 "HgN/A
5:55 pm48 °FCloudy.6 mph58%29.98 "HgN/A
5:25 pm48 °FLight rain. Overcast.7 mph58%29.98 "HgN/A
4:55 pm52 °FCloudy.9 mph47%29.98 "HgN/A
4:25 pm54 °FMostly cloudy.9 mph44%30.01 "HgN/A
3:55 pm50 °FBroken clouds.9 mph54%30.01 "HgN/A
3:25 pm48 °FMore clouds than sun.10 mph54%30.01 "HgN/A
2:55 pm48 °FOvercast.12 mph54%30.01 "HgN/A
2:25 pm50 °FBroken clouds.7 mph50%30.01 "HgN/A
1:55 pm50 °FBroken clouds.8 mph47%30.01 "HgN/A
1:25 pm50 °FPartly sunny.6 mph50%30.01 "HgN/A
12:55 pm50 °FPartly sunny.6 mph50%30.01 "HgN/A
12:25 pm50 °FBroken clouds.7 mph50%30.01 "HgN/A
11:55 am50 °FBroken clouds.6 mph50%30.01 "HgN/A
11:25 am48 °FMostly cloudy.5 mph54%30.04 "HgN/A
10:55 am48 °FPartly sunny.6 mph58%30.04 "HgN/A
10:25 am46 °FBroken clouds.6 mph57%30.04 "HgN/A
9:42 am45 °FScattered clouds.5 mph71%30.04 "HgN/A
8:55 am43 °FPartly sunny.3 mph76%30.04 "HgN/A
8:25 am41 °FPartly sunny.3 mph81%30.01 "HgN/A
7:55 am37 °FScattered clouds.5 mph87%30.01 "HgN/A
7:25 am32 °FPartly sunny.3 mph93%30.01 "HgN/A
6:55 am34 °FChilly.5 mph93%30.01 "HgN/A
6:25 am32 °FPassing clouds.3 mph93%30.01 "HgN/A
5:55 am28 °FPassing clouds.2 mph86%30.01 "HgN/A
5:25 am30 °FChilly.3 mph93%30.01 "HgN/A
4:55 am30 °FChilly.2 mph93%30.01 "HgN/A
4:25 am34 °FPassing clouds.2 mph87%30.01 "HgN/A
Weather by CustomWeather, © 2017

See weather overviewHow to use our weather pages